Back to catalog

STARLINK-31131

AliveCommunicationsVLEO
NORAD 58673·PAYLOAD·🇺🇸 United States

Launched Dec 29, 2023 from Cape Canaveral Space Force Station

Loading…

Next Passes (next 24 hours)

TLE

FreshSource: CelesTrak SupGP

Epoch: Sep 15, 2026, 01:49 UTC

1 58673C 23211G   26258.07618056  .00018309  00000+0  66316-3 0  2587
2 58673  42.9999  84.9271 0001512 274.0137  29.7404 15.27569340    16

Track STARLINK-31131 in real time with AllMySat

Download on the App Store